Time,TemperatureF,DewpointF,PressureIn,WindDirection,WindDirectionDegrees,WindSpeedMPH,WindSpeedGustMPH,Humidity,HourlyPrecipIn,Conditions,Clouds,dailyrainin,SoftwareType,DateUTC
2013-05-08 00:00:00,64.4,59.0,30.45,NE,37,1.2,-999.9,83,-99.99,,,-99.99,,2013-05-08 04:00:00,
2013-05-08 00:12:00,64.4,59.0,30.45,North,0,0.0,-999.9,83,-99.99,,,-99.99,,2013-05-08 04:12:00,
2013-05-08 00:14:00,64.4,59.0,30.45,North,0,0.0,-999.9,83,-99.99,,,-99.99,,2013-05-08 04:14:00,
2013-05-08 00:16:00,64.4,59.0,30.45,North,0,0.0,-999.9,83,-99.99,,,-99.99,,2013-05-08 04:16:00,
2013-05-08 00:18:00,64.4,59.0,30.45,North,0,0.0,-999.9,83,-99.99,,,-99.99,,2013-05-08 04:18:00,
2013-05-08 00:24:00,62.6,57.2,30.45,NE,52,0.0,-999.9,82,-99.99,,,-99.99,,2013-05-08 04:24:00,
2013-05-08 00:30:00,62.6,57.2,30.45,NE,52,0.0,-999.9,82,-99.99,,,-99.99,,2013-05-08 04:30:00,
2013-05-08 00:32:00,62.6,57.2,30.45,NE,40,1.2,-999.9,82,-99.99,,,-99.99,,2013-05-08 04:32:00,
2013-05-08 00:38:00,62.6,57.2,30.45,NE,40,1.2,-999.9,82,-99.99,,,-99.99,,2013-05-08 04:38:00,
2013-05-08 00:44:00,62.6,57.2,30.45,North,0,0.0,-999.9,82,-99.99,,,-99.99,,2013-05-08 04:44:00,
2013-05-08 00:50:00,62.6,57.2,30.45,North,0,0.0,-999.9,82,-99.99,,,-99.99,,2013-05-08 04:50:00,
2013-05-08 00:56:00,62.6,57.2,30.45,North,0,0.0,-999.9,82,-99.99,,,-99.99,,2013-05-08 04:56:00,
2013-05-08 02:12:00,62.6,57.2,30.43,NNE,33,3.5,-999.9,82,-99.99,,,-99.99,,2013-05-08 06:12:00,
2013-05-08 02:18:00,62.6,57.2,30.43,NNE,33,3.5,-999.9,82,-99.99,,,-99.99,,2013-05-08 06:18:00,
2013-05-08 02:24:00,62.6,57.2,30.43,ENE,77,3.5,-999.9,82,-99.99,,,-99.99,,2013-05-08 06:24:00,
2013-05-08 02:30:00,62.6,57.2,30.43,ENE,77,3.5,-999.9,82,-99.99,,,-99.99,,2013-05-08 06:30:00,
2013-05-08 02:36:00,62.6,57.2,30.42,East,79,1.2,-999.9,82,-99.99,,,-99.99,,2013-05-08 06:36:00,
2013-05-08 02:42:00,62.6,57.2,30.42,North,0,0.0,-999.9,82,-99.99,,,-99.99,,2013-05-08 06:42:00,
2013-05-08 02:48:00,62.6,57.2,30.42,North,0,0.0,-999.9,82,-99.99,,,-99.99,,2013-05-08 06:48:00,
2013-05-08 03:12:00,60.8,57.2,30.42,North,0,0.0,-999.9,88,-99.99,,,-99.99,,2013-05-08 07:12:00,
2013-05-08 03:18:00,60.8,57.2,30.42,North,0,0.0,-999.9,88,-99.99,,,-99.99,,2013-05-08 07:18:00,
2013-05-08 03:24:00,60.8,57.2,30.42,North,0,0.0,-999.9,88,-99.99,,,-99.99,,2013-05-08 07:24:00,
2013-05-08 03:30:00,60.8,57.2,30.42,North,0,0.0,-999.9,88,-99.99,,,-99.99,,2013-05-08 07:30:00,
2013-05-08 03:36:00,60.8,59.0,30.42,North,351,1.2,-999.9,94,-99.99,,,-99.99,,2013-05-08 07:36:00,
2013-05-08 03:42:00,60.8,59.0,30.42,North,0,0.0,-999.9,94,-99.99,,,-99.99,,2013-05-08 07:42:00,
2013-05-08 03:48:00,60.8,59.0,30.42,North,0,0.0,-999.9,94,-99.99,,,-99.99,,2013-05-08 07:48:00,
2013-05-08 03:54:00,60.8,59.0,30.43,SSE,161,1.2,-999.9,94,-99.99,,,-99.99,,2013-05-08 07:54:00,
2013-05-08 04:00:00,60.8,59.0,30.43,SSE,161,1.2,-999.9,94,-99.99,,,-99.99,,2013-05-08 08:00:00,
2013-05-08 04:06:00,60.8,59.0,30.43,North,0,0.0,-999.9,94,-99.99,,,-99.99,,2013-05-08 08:06:00,
2013-05-08 04:12:00,60.8,59.0,30.42,North,351,2.3,-999.9,94,-99.99,,,-99.99,,2013-05-08 08:12:00,
2013-05-08 04:18:00,60.8,59.0,30.42,North,351,2.3,-999.9,94,-99.99,,,-99.99,,2013-05-08 08:18:00,
2013-05-08 04:24:00,60.8,59.0,30.42,North,0,0.0,-999.9,94,-99.99,,,-99.99,,2013-05-08 08:24:00,
2013-05-08 04:30:00,60.8,59.0,30.42,North,0,0.0,-999.9,94,-99.99,,,-99.99,,2013-05-08 08:30:00,
2013-05-08 04:36:00,60.8,59.0,30.42,North,0,0.0,-999.9,94,-99.99,,,-99.99,,2013-05-08 08:36:00,
2013-05-08 04:42:00,60.8,59.0,30.42,North,0,0.0,-999.9,94,-99.99,,,-99.99,,2013-05-08 08:42:00,
2013-05-08 04:48:00,60.8,59.0,30.42,North,0,0.0,-999.9,94,-99.99,,,-99.99,,2013-05-08 08:48:00,
2013-05-08 04:54:00,60.8,59.0,30.41,North,0,0.0,-999.9,94,-99.99,,,-99.99,,2013-05-08 08:54:00,
2013-05-08 05:00:00,60.8,59.0,30.41,North,0,0.0,-999.9,94,-99.99,,,-99.99,,2013-05-08 09:00:00,
2013-05-08 05:12:00,60.8,59.0,30.40,North,9,0.0,-999.9,94,-99.99,,,-99.99,,2013-05-08 09:12:00,
2013-05-08 05:18:00,60.8,59.0,30.40,North,9,0.0,-999.9,94,-99.99,,,-99.99,,2013-05-08 09:18:00,
2013-05-08 05:24:00,60.8,59.0,30.39,North,5,3.5,-999.9,94,-99.99,,,-99.99,,2013-05-08 09:24:00,
2013-05-08 05:30:00,60.8,59.0,30.39,North,5,3.5,-999.9,94,-99.99,,,-99.99,,2013-05-08 09:30:00,
2013-05-08 05:36:00,60.8,59.0,30.40,North,0,0.0,-999.9,94,-99.99,,,-99.99,,2013-05-08 09:36:00,
2013-05-08 05:42:00,60.8,59.0,30.41,North,0,0.0,-999.9,94,-99.99,,,-99.99,,2013-05-08 09:42:00,
2013-05-08 05:48:00,60.8,59.0,30.41,North,0,0.0,-999.9,94,-99.99,,,-99.99,,2013-05-08 09:48:00,
2013-05-08 05:54:00,60.8,59.0,30.41,NNE,17,1.2,-999.9,94,-99.99,,,-99.99,,2013-05-08 09:54:00,
2013-05-08 06:00:00,60.8,59.0,30.41,NNE,17,1.2,-999.9,94,-99.99,,,-99.99,,2013-05-08 10:00:00,
2013-05-08 06:12:00,60.8,59.0,30.42,North,0,0.0,-999.9,94,-99.99,,,-99.99,,2013-05-08 10:12:00,
2013-05-08 06:18:00,60.8,59.0,30.42,North,0,0.0,-999.9,94,-99.99,,,-99.99,,2013-05-08 10:18:00,
2013-05-08 06:24:00,60.8,59.0,30.42,North,0,0.0,-999.9,94,-99.99,,,-99.99,,2013-05-08 10:24:00,
2013-05-08 06:30:00,60.8,59.0,30.42,North,0,0.0,-999.9,94,-99.99,,,-99.99,,2013-05-08 10:30:00,
2013-05-08 06:36:00,60.8,59.0,30.42,North,0,0.0,-999.9,94,-99.99,,,-99.99,,2013-05-08 10:36:00,
2013-05-08 06:42:00,60.8,59.0,30.42,East,81,2.3,-999.9,94,-99.99,,,-99.99,,2013-05-08 10:42:00,
2013-05-08 06:48:00,60.8,59.0,30.42,East,81,2.3,-999.9,94,-99.99,,,-99.99,,2013-05-08 10:48:00,
2013-05-08 06:54:00,60.8,59.0,30.42,SE,131,0.0,-999.9,94,-99.99,,,-99.99,,2013-05-08 10:54:00,
2013-05-08 07:00:00,60.8,59.0,30.42,SE,131,0.0,-999.9,94,-99.99,,,-99.99,,2013-05-08 11:00:00,
2013-05-08 07:06:00,60.8,59.0,30.42,North,0,0.0,-999.9,94,-99.99,,,-99.99,,2013-05-08 11:06:00,
2013-05-08 07:12:00,60.8,59.0,30.43,SSE,157,1.2,-999.9,94,-99.99,,,-99.99,,2013-05-08 11:12:00,
2013-05-08 07:18:00,60.8,59.0,30.43,SSE,157,1.2,-999.9,94,-99.99,,,-99.99,,2013-05-08 11:18:00,
2013-05-08 07:32:00,60.8,59.0,30.44,SW,226,0.0,-999.9,94,-99.99,,,-99.99,,2013-05-08 11:32:00,
2013-05-08 07:38:00,60.8,59.0,30.44,SW,226,0.0,-999.9,94,-99.99,,,-99.99,,2013-05-08 11:38:00,
2013-05-08 07:44:00,60.8,59.0,30.44,North,0,0.0,-999.9,94,-99.99,,,-99.99,,2013-05-08 11:44:00,
2013-05-08 07:50:00,60.8,59.0,30.44,North,0,0.0,-999.9,94,-99.99,,,-99.99,,2013-05-08 11:50:00,
2013-05-08 07:56:00,60.8,59.0,30.43,East,97,2.3,-999.9,94,-99.99,,,-99.99,,2013-05-08 11:56:00,
2013-05-08 08:02:00,60.8,59.0,30.43,NE,41,1.2,-999.9,94,-99.99,,,-99.99,,2013-05-08 12:02:00,
2013-05-08 08:08:00,60.8,59.0,30.43,NE,41,1.2,-999.9,94,-99.99,,,-99.99,,2013-05-08 12:08:00,
2013-05-08 08:14:00,60.8,59.0,30.42,NW,320,0.0,-999.9,94,-99.99,,,-99.99,,2013-05-08 12:14:00,
2013-05-08 08:20:00,60.8,59.0,30.42,NW,320,0.0,-999.9,94,-99.99,,,-99.99,,2013-05-08 12:20:00,
2013-05-08 08:26:00,60.8,59.0,30.44,North,0,0.0,-999.9,94,-99.99,,,-99.99,,2013-05-08 12:26:00,
2013-05-08 08:32:00,60.8,59.0,30.45,ENE,57,3.5,-999.9,94,-99.99,,,-99.99,,2013-05-08 12:32:00,
2013-05-08 08:38:00,60.8,59.0,30.45,ENE,57,3.5,-999.9,94,-99.99,,,-99.99,,2013-05-08 12:38:00,
2013-05-08 08:44:00,60.8,60.8,30.44,North,0,0.0,-999.9,100,-99.99,,,-99.99,,2013-05-08 12:44:00,
2013-05-08 08:50:00,60.8,60.8,30.44,North,0,0.0,-999.9,100,-99.99,,,-99.99,,2013-05-08 12:50:00,
2013-05-08 09:02:00,60.8,60.8,30.45,North,356,0.0,-999.9,100,-99.99,,,-99.99,,2013-05-08 13:02:00,
2013-05-08 09:08:00,60.8,60.8,30.45,North,356,0.0,-999.9,100,-99.99,,,-99.99,,2013-05-08 13:08:00,
2013-05-08 09:14:00,60.8,60.8,30.43,NNW,338,2.3,-999.9,100,-99.99,,,-99.99,,2013-05-08 13:14:00,
2013-05-08 09:20:00,60.8,60.8,30.43,NNW,338,2.3,-999.9,100,-99.99,,,-99.99,,2013-05-08 13:20:00,
2013-05-08 09:26:00,60.8,60.8,30.42,NW,322,2.3,-999.9,100,-99.99,,,-99.99,,2013-05-08 13:26:00,
2013-05-08 09:32:00,60.8,60.8,30.42,NNW,327,1.2,-999.9,100,-99.99,,,-99.99,,2013-05-08 13:32:00,
2013-05-08 09:38:00,60.8,60.8,30.42,NNW,327,1.2,-999.9,100,-99.99,,,-99.99,,2013-05-08 13:38:00,
2013-05-08 09:44:00,60.8,60.8,30.42,North,358,3.5,-999.9,100,-99.99,,,-99.99,,2013-05-08 13:44:00,
2013-05-08 09:50:00,60.8,60.8,30.42,North,358,3.5,-999.9,100,-99.99,,,-99.99,,2013-05-08 13:50:00,
2013-05-08 09:56:00,60.8,60.8,30.42,North,351,3.5,-999.9,100,-99.99,,,-99.99,,2013-05-08 13:56:00,
2013-05-08 10:12:00,60.8,60.8,30.41,North,355,4.6,-999.9,100,-99.99,,,-99.99,,2013-05-08 14:12:00,
2013-05-08 10:18:00,60.8,60.8,30.41,North,355,4.6,-999.9,100,-99.99,,,-99.99,,2013-05-08 14:18:00,
2013-05-08 10:24:00,60.8,59.0,30.41,North,353,3.5,-999.9,94,-99.99,,,-99.99,,2013-05-08 14:24:00,
2013-05-08 10:30:00,60.8,59.0,30.41,North,353,3.5,-999.9,94,-99.99,,,-99.99,,2013-05-08 14:30:00,
2013-05-08 10:36:00,60.8,59.0,30.42,North,11,3.5,-999.9,94,-99.99,,,-99.99,,2013-05-08 14:36:00,
2013-05-08 10:42:00,62.6,60.8,30.41,North,354,3.5,-999.9,94,-99.99,,,-99.99,,2013-05-08 14:42:00,
2013-05-08 10:48:00,62.6,60.8,30.41,North,354,3.5,-999.9,94,-99.99,,,-99.99,,2013-05-08 14:48:00,
2013-05-08 10:54:00,62.6,59.0,30.40,North,357,3.5,-999.9,88,-99.99,,,-99.99,,2013-05-08 14:54:00,
2013-05-08 11:00:00,62.6,59.0,30.40,North,357,3.5,-999.9,88,-99.99,,,-99.99,,2013-05-08 15:00:00,
2013-05-08 11:06:00,64.4,60.8,30.41,North,356,3.5,-999.9,88,-99.99,,,-99.99,,2013-05-08 15:06:00,
2013-05-08 11:12:00,64.4,59.0,30.40,North,9,6.9,-999.9,83,-99.99,,,-99.99,,2013-05-08 15:12:00,
2013-05-08 11:18:00,64.4,59.0,30.40,North,9,6.9,-999.9,83,-99.99,,,-99.99,,2013-05-08 15:18:00,
2013-05-08 11:24:00,66.2,60.8,30.39,NNW,341,9.2,-999.9,83,-99.99,,,-99.99,,2013-05-08 15:24:00,
2013-05-08 11:30:00,66.2,60.8,30.39,NNW,341,9.2,-999.9,83,-99.99,,,-99.99,,2013-05-08 15:30:00,
2013-05-08 11:36:00,66.2,59.0,30.39,SSE,152,1.2,-999.9,78,-99.99,,,-99.99,,2013-05-08 15:36:00,
2013-05-08 11:42:00,68.0,60.8,30.39,ESE,120,1.2,-999.9,78,-99.99,,,-99.99,,2013-05-08 15:42:00,
2013-05-08 11:48:00,68.0,60.8,30.39,ESE,120,1.2,-999.9,78,-99.99,,,-99.99,,2013-05-08 15:48:00,
2013-05-08 12:02:00,66.2,59.0,30.39,ESE,110,0.0,-999.9,78,-99.99,,,-99.99,,2013-05-08 16:02:00,
2013-05-08 12:08:00,66.2,59.0,30.39,ESE,110,0.0,-999.9,78,-99.99,,,-99.99,,2013-05-08 16:08:00,
2013-05-08 12:14:00,66.2,59.0,30.38,NE,51,5.8,-999.9,78,-99.99,,,-99.99,,2013-05-08 16:14:00,
2013-05-08 12:20:00,66.2,59.0,30.38,NE,51,5.8,-999.9,78,-99.99,,,-99.99,,2013-05-08 16:20:00,
2013-05-08 12:26:00,66.2,59.0,30.37,North,1,2.3,-999.9,78,-99.99,,,-99.99,,2013-05-08 16:26:00,
2013-05-08 12:32:00,66.2,59.0,30.36,NNW,346,6.9,-999.9,78,-99.99,,,-99.99,,2013-05-08 16:32:00,
2013-05-08 12:38:00,66.2,59.0,30.36,NNW,346,6.9,-999.9,78,-99.99,,,-99.99,,2013-05-08 16:38:00,
2013-05-08 12:44:00,66.2,59.0,30.35,NE,56,6.9,-999.9,78,-99.99,,,-99.99,,2013-05-08 16:44:00,
2013-05-08 12:50:00,66.2,59.0,30.35,NE,56,6.9,-999.9,78,-99.99,,,-99.99,,2013-05-08 16:50:00,
2013-05-08 12:56:00,66.2,59.0,30.34,NNE,32,2.3,-999.9,78,-99.99,,,-99.99,,2013-05-08 16:56:00,
2013-05-08 13:02:00,66.2,60.8,30.34,North,2,3.5,-999.9,83,-99.99,,,-99.99,,2013-05-08 17:02:00,
2013-05-08 13:08:00,66.2,60.8,30.34,North,2,3.5,-999.9,83,-99.99,,,-99.99,,2013-05-08 17:08:00,
2013-05-08 13:14:00,64.4,60.8,30.34,NNE,29,2.3,-999.9,88,-99.99,,,-99.99,,2013-05-08 17:14:00,
2013-05-08 13:20:00,64.4,60.8,30.34,NNE,29,2.3,-999.9,88,-99.99,,,-99.99,,2013-05-08 17:20:00,
2013-05-08 13:26:00,64.4,60.8,30.34,ENE,75,3.5,-999.9,88,-99.99,,,-99.99,,2013-05-08 17:26:00,
2013-05-08 13:32:00,64.4,62.6,30.34,North,0,3.5,-999.9,94,-99.99,,,-99.99,,2013-05-08 17:32:00,
2013-05-08 13:38:00,64.4,62.6,30.34,North,0,3.5,-999.9,94,-99.99,,,-99.99,,2013-05-08 17:38:00,
2013-05-08 13:44:00,64.4,62.6,30.34,NNE,20,5.8,-999.9,94,-99.99,,,-99.99,,2013-05-08 17:44:00,
2013-05-08 13:50:00,64.4,62.6,30.34,NNE,20,5.8,-999.9,94,-99.99,,,-99.99,,2013-05-08 17:50:00,
2013-05-08 13:56:00,64.4,62.6,30.35,ENE,71,3.5,-999.9,94,-99.99,,,-99.99,,2013-05-08 17:56:00,
2013-05-08 14:22:00,64.4,62.6,30.34,SSW,212,2.3,-999.9,94,-99.99,,,-99.99,,2013-05-08 18:22:00,
2013-05-08 14:28:00,64.4,62.6,30.34,SSW,212,2.3,-999.9,94,-99.99,,,-99.99,,2013-05-08 18:28:00,
2013-05-08 14:34:00,64.4,62.6,30.34,SSE,154,4.6,-999.9,94,-99.99,,,-99.99,,2013-05-08 18:34:00,
2013-05-08 14:40:00,64.4,62.6,30.34,SSE,154,4.6,-999.9,94,-99.99,,,-99.99,,2013-05-08 18:40:00,
2013-05-08 14:46:00,64.4,62.6,30.34,ESE,119,2.3,-999.9,94,-99.99,,,-99.99,,2013-05-08 18:46:00,
2013-05-08 14:52:00,62.6,60.8,30.34,SSE,150,6.9,-999.9,94,-99.99,,,-99.99,,2013-05-08 18:52:00,
2013-05-08 14:58:00,62.6,60.8,30.34,SSE,150,6.9,-999.9,94,-99.99,,,-99.99,,2013-05-08 18:58:00,
2013-05-08 15:04:00,62.6,60.8,30.33,ESE,121,4.6,-999.9,94,-99.99,,,-99.99,,2013-05-08 19:04:00,
2013-05-08 15:10:00,62.6,60.8,30.33,ESE,121,4.6,-999.9,94,-99.99,,,-99.99,,2013-05-08 19:10:00,
2013-05-08 15:16:00,64.4,62.6,30.33,South,169,1.2,-999.9,94,-99.99,,,-99.99,,2013-05-08 19:16:00,
2013-05-08 15:22:00,64.4,62.6,30.33,SSE,155,3.5,-999.9,94,-99.99,,,-99.99,,2013-05-08 19:22:00,
2013-05-08 15:28:00,64.4,62.6,30.33,SSE,155,3.5,-999.9,94,-99.99,,,-99.99,,2013-05-08 19:28:00,
2013-05-08 15:34:00,64.4,62.6,30.33,SSE,167,11.5,-999.9,94,-99.99,,,-99.99,,2013-05-08 19:34:00,
2013-05-08 15:40:00,64.4,62.6,30.33,SSE,167,11.5,-999.9,94,-99.99,,,-99.99,,2013-05-08 19:40:00,
2013-05-08 15:46:00,62.6,60.8,30.32,South,175,4.6,-999.9,94,-99.99,,,-99.99,,2013-05-08 19:46:00,
2013-05-08 15:52:00,62.6,60.8,30.32,SSE,164,6.9,-999.9,94,-99.99,,,-99.99,,2013-05-08 19:52:00,
2013-05-08 15:58:00,62.6,60.8,30.32,SSE,164,6.9,-999.9,94,-99.99,,,-99.99,,2013-05-08 19:58:00,
2013-05-08 16:04:00,62.6,60.8,30.32,SE,132,2.3,-999.9,94,-99.99,,,-99.99,,2013-05-08 20:04:00,
2013-05-08 16:10:00,62.6,60.8,30.32,SE,132,2.3,-999.9,94,-99.99,,,-99.99,,2013-05-08 20:10:00,
2013-05-08 16:16:00,62.6,60.8,30.33,South,183,4.6,-999.9,94,-99.99,,,-99.99,,2013-05-08 20:16:00,
2013-05-08 16:22:00,64.4,62.6,30.32,South,179,3.5,-999.9,94,-99.99,,,-99.99,,2013-05-08 20:22:00,
2013-05-08 16:28:00,64.4,62.6,30.32,South,179,3.5,-999.9,94,-99.99,,,-99.99,,2013-05-08 20:28:00,
2013-05-08 16:34:00,64.4,62.6,30.32,SSW,203,2.3,-999.9,94,-99.99,,,-99.99,,2013-05-08 20:34:00,
2013-05-08 16:40:00,64.4,62.6,30.32,SSW,203,2.3,-999.9,94,-99.99,,,-99.99,,2013-05-08 20:40:00,
2013-05-08 16:46:00,64.4,62.6,30.32,ESE,109,0.0,-999.9,94,-99.99,,,-99.99,,2013-05-08 20:46:00,
2013-05-08 16:52:00,64.4,62.6,30.32,North,0,0.0,-999.9,94,-99.99,,,-99.99,,2013-05-08 20:52:00,
2013-05-08 16:58:00,64.4,62.6,30.32,North,0,0.0,-999.9,94,-99.99,,,-99.99,,2013-05-08 20:58:00,
2013-05-08 17:12:00,64.4,62.6,30.33,SW,226,0.0,-999.9,94,-99.99,,,-99.99,,2013-05-08 21:12:00,
2013-05-08 17:18:00,64.4,62.6,30.33,SW,226,0.0,-999.9,94,-99.99,,,-99.99,,2013-05-08 21:18:00,
2013-05-08 17:24:00,64.4,60.8,30.32,NNE,19,0.0,-999.9,88,-99.99,,,-99.99,,2013-05-08 21:24:00,
2013-05-08 17:30:00,64.4,60.8,30.32,NNE,19,0.0,-999.9,88,-99.99,,,-99.99,,2013-05-08 21:30:00,
2013-05-08 17:36:00,64.4,60.8,30.32,East,92,0.0,-999.9,88,-99.99,,,-99.99,,2013-05-08 21:36:00,
2013-05-08 17:42:00,64.4,60.8,30.32,North,0,0.0,-999.9,88,-99.99,,,-99.99,,2013-05-08 21:42:00,
2013-05-08 17:48:00,64.4,60.8,30.32,North,0,0.0,-999.9,88,-99.99,,,-99.99,,2013-05-08 21:48:00,
2013-05-08 17:54:00,64.4,60.8,30.32,SSE,150,1.2,-999.9,88,-99.99,,,-99.99,,2013-05-08 21:54:00,
2013-05-08 18:00:00,64.4,60.8,30.32,SSE,150,1.2,-999.9,88,-99.99,,,-99.99,,2013-05-08 22:00:00,
2013-05-08 18:12:00,64.4,60.8,30.32,SE,144,2.3,-999.9,88,-99.99,,,-99.99,,2013-05-08 22:12:00,
2013-05-08 18:18:00,64.4,60.8,30.32,SE,144,2.3,-999.9,88,-99.99,,,-99.99,,2013-05-08 22:18:00,
2013-05-08 18:24:00,64.4,60.8,30.32,SE,141,6.9,-999.9,88,-99.99,,,-99.99,,2013-05-08 22:24:00,
2013-05-08 18:30:00,64.4,60.8,30.32,SE,141,6.9,-999.9,88,-99.99,,,-99.99,,2013-05-08 22:30:00,
2013-05-08 18:36:00,64.4,60.8,30.32,East,94,0.0,-999.9,88,-99.99,,,-99.99,,2013-05-08 22:36:00,
2013-05-08 18:42:00,64.4,60.8,30.32,North,0,0.0,-999.9,88,-99.99,,,-99.99,,2013-05-08 22:42:00,
2013-05-08 18:48:00,64.4,60.8,30.32,North,0,0.0,-999.9,88,-99.99,,,-99.99,,2013-05-08 22:48:00,
2013-05-08 18:54:00,64.4,60.8,30.32,SE,133,3.5,-999.9,88,-99.99,,,-99.99,,2013-05-08 22:54:00,
2013-05-08 19:00:00,64.4,60.8,30.32,SE,133,3.5,-999.9,88,-99.99,,,-99.99,,2013-05-08 23:00:00,
2013-05-08 19:06:00,64.4,60.8,30.32,ESE,113,1.2,-999.9,88,-99.99,,,-99.99,,2013-05-08 23:06:00,
2013-05-08 19:12:00,64.4,60.8,30.32,South,171,1.2,-999.9,88,-99.99,,,-99.99,,2013-05-08 23:12:00,
2013-05-08 19:18:00,64.4,60.8,30.32,South,171,1.2,-999.9,88,-99.99,,,-99.99,,2013-05-08 23:18:00,
2013-05-08 19:24:00,62.6,59.0,30.32,SE,133,5.8,-999.9,88,-99.99,,,-99.99,,2013-05-08 23:24:00,
2013-05-08 19:30:00,62.6,59.0,30.32,SE,133,5.8,-999.9,88,-99.99,,,-99.99,,2013-05-08 23:30:00,
2013-05-08 19:36:00,62.6,57.2,30.33,SE,134,4.6,-999.9,82,-99.99,,,-99.99,,2013-05-08 23:36:00,
2013-05-08 19:42:00,62.6,55.4,30.34,SSE,168,4.6,-999.9,77,-99.99,,,-99.99,,2013-05-08 23:42:00,
2013-05-08 19:48:00,62.6,55.4,30.34,SSE,168,4.6,-999.9,77,-99.99,,,-99.99,,2013-05-08 23:48:00,
2013-05-08 19:54:00,60.8,55.4,30.34,SSE,165,1.2,-999.9,82,-99.99,,,-99.99,,2013-05-08 23:54:00,
2013-05-08 20:00:00,60.8,55.4,30.34,SSE,165,1.2,-999.9,82,-99.99,,,-99.99,,2013-05-09 00:00:00,
2013-05-08 20:12:00,60.8,55.4,30.34,North,0,0.0,-999.9,82,-99.99,,,-99.99,,2013-05-09 00:12:00,
2013-05-08 20:18:00,60.8,55.4,30.34,North,0,0.0,-999.9,82,-99.99,,,-99.99,,2013-05-09 00:18:00,
2013-05-08 21:12:00,57.2,53.6,30.36,North,0,0.0,-999.9,88,-99.99,,,-99.99,,2013-05-09 01:12:00,
2013-05-08 21:18:00,57.2,53.6,30.36,North,0,0.0,-999.9,88,-99.99,,,-99.99,,2013-05-09 01:18:00,
2013-05-08 21:24:00,57.2,55.4,30.37,North,0,0.0,-999.9,94,-99.99,,,-99.99,,2013-05-09 01:24:00,
2013-05-08 21:30:00,57.2,55.4,30.37,North,0,0.0,-999.9,94,-99.99,,,-99.99,,2013-05-09 01:30:00,
2013-05-08 21:36:00,57.2,55.4,30.37,North,0,0.0,-999.9,94,-99.99,,,-99.99,,2013-05-09 01:36:00,
2013-05-08 21:42:00,57.2,55.4,30.37,North,0,0.0,-999.9,94,-99.99,,,-99.99,,2013-05-09 01:42:00,
2013-05-08 21:48:00,57.2,55.4,30.37,North,0,0.0,-999.9,94,-99.99,,,-99.99,,2013-05-09 01:48:00,
2013-05-08 21:54:00,57.2,55.4,30.37,North,0,0.0,-999.9,94,-99.99,,,-99.99,,2013-05-09 01:54:00,
2013-05-08 22:00:00,57.2,55.4,30.37,North,0,0.0,-999.9,94,-99.99,,,-99.99,,2013-05-09 02:00:00,
2013-05-08 22:12:00,55.4,53.6,30.38,North,0,0.0,-999.9,94,-99.99,,,-99.99,,2013-05-09 02:12:00,
2013-05-08 22:18:00,55.4,53.6,30.38,North,0,0.0,-999.9,94,-99.99,,,-99.99,,2013-05-09 02:18:00,
2013-05-08 22:24:00,55.4,53.6,30.38,North,0,0.0,-999.9,94,-99.99,,,-99.99,,2013-05-09 02:24:00,
2013-05-08 22:30:00,55.4,53.6,30.38,North,0,0.0,-999.9,94,-99.99,,,-99.99,,2013-05-09 02:30:00,
2013-05-08 22:36:00,55.4,53.6,30.38,North,0,0.0,-999.9,94,-99.99,,,-99.99,,2013-05-09 02:36:00,
2013-05-08 22:42:00,55.4,53.6,30.38,North,0,0.0,-999.9,94,-99.99,,,-99.99,,2013-05-09 02:42:00,
2013-05-08 22:48:00,55.4,53.6,30.38,North,0,0.0,-999.9,94,-99.99,,,-99.99,,2013-05-09 02:48:00,
2013-05-08 22:54:00,55.4,53.6,30.38,ESE,121,0.0,-999.9,94,-99.99,,,-99.99,,2013-05-09 02:54:00,
2013-05-08 23:00:00,55.4,53.6,30.38,ESE,121,0.0,-999.9,94,-99.99,,,-99.99,,2013-05-09 03:00:00,
2013-05-08 23:06:00,55.4,53.6,30.38,North,0,0.0,-999.9,94,-99.99,,,-99.99,,2013-05-09 03:06:00,
2013-05-08 23:12:00,55.4,53.6,30.37,North,0,0.0,-999.9,94,-99.99,,,-99.99,,2013-05-09 03:12:00,
2013-05-08 23:18:00,55.4,53.6,30.37,North,0,0.0,-999.9,94,-99.99,,,-99.99,,2013-05-09 03:18:00,
2013-05-08 23:24:00,55.4,53.6,30.37,North,0,0.0,-999.9,94,-99.99,,,-99.99,,2013-05-09 03:24:00,
2013-05-08 23:30:00,55.4,53.6,30.37,North,0,0.0,-999.9,94,-99.99,,,-99.99,,2013-05-09 03:30:00,
2013-05-08 23:36:00,55.4,55.4,30.37,North,0,0.0,-999.9,100,-99.99,,,-99.99,,2013-05-09 03:36:00,
2013-05-08 23:42:00,55.4,55.4,30.37,North,0,0.0,-999.9,100,-99.99,,,-99.99,,2013-05-09 03:42:00,
2013-05-08 23:48:00,55.4,55.4,30.37,North,0,0.0,-999.9,100,-99.99,,,-99.99,,2013-05-09 03:48:00,
2013-05-08 23:54:00,55.4,53.6,30.37,North,0,0.0,-999.9,94,-99.99,,,-99.99,,2013-05-09 03:54:00,